owner,sensor,date,latitude,longitude,vertical_datum,direction_of_sea_water_velocity,sea_water_speed,upward_sea_water_velocity,qcFlag 
TABS,ioos:station:wmo:42043:1,2002-03-01T00:00:00Z,28.9818,-94.9186,2.0,255.4132864,43.95675716,-99999.0,'11111222,11111222,99999999' 
TABS,ioos:station:wmo:42043:1,2002-03-01T00:30:00Z,28.9818,-94.9186,2.0,253.4300869,45.26985973,-99999.0,'11111222,11111222,99999999' 
TABS,ioos:station:wmo:42043:1,2002-03-01T01:00:00Z,28.9818,-94.9186,2.0,245.6561281,46.26324027,-99999.0,'11111222,11111222,99999999' 
TABS,ioos:station:wmo:42043:1,2002-03-01T01:30:00Z,28.9818,-94.9186,2.0,246.1858731,47.3295056,-99999.0,'11111222,11111222,99999999' 
TABS,ioos:station:wmo:42043:1,2002-03-01T02:00:00Z,28.9818,-94.9186,2.0,241.7978626,47.4418855,-99999.0,'11111222,11111222,99999999' 
TABS,ioos:station:wmo:42043:1,2002-03-01T02:30:00Z,28.9818,-94.9186,2.0,236.3819748,48.29778463,-99999.0,'11111222,11111222,99999999' 
TABS,ioos:station:wmo:42043:1,2002-03-01T03:00:00Z,28.9818,-94.9186,2.0,244.0326774,47.98416093,-99999.0,'11111222,11111222,99999999' 
TABS,ioos:station:wmo:42043:1,2002-03-01T03:30:00Z,28.9818,-94.9186,2.0,241.7841838,45.496024,-99999.0,'11111222,11111222,99999999' 
TABS,ioos:station:wmo:42043:1,2002-03-01T04:00:00Z,28.9818,-94.9186,2.0,238.5844841,39.61740274,-99999.0,'11111222,11111222,99999999' 
TABS,ioos:station:wmo:42043:1,2002-03-01T04:30:00Z,28.9818,-94.9186,2.0,247.6474929,46.7528181,-99999.0,'11111222,11111222,99999999' 
TABS,ioos:station:wmo:42043:1,2002-03-01T05:00:00Z,28.9818,-94.9186,2.0,246.9615661,39.83721501,-99999.0,'11111222,11111222,99999999' 
TABS,ioos:station:wmo:42043:1,2002-03-01T05:30:00Z,28.9818,-94.9186,2.0,245.2523645,38.77056873,-99999.0,'11111222,11111222,99999999' 
TABS,ioos:station:wmo:42043:1,2002-03-01T06:00:00Z,28.9818,-94.9186,2.0,248.9300432,35.9108368,-99999.0,'11111222,11111222,99999999' 
TABS,ioos:station:wmo:42043:1,2002-03-01T06:30:00Z,28.9818,-94.9186,2.0,246.1820068,36.94653434,-99999.0,'11111222,11111222,99999999' 
TABS,ioos:station:wmo:42043:1,2002-03-01T07:00:00Z,28.9818,-94.9186,2.0,258.0040436,41.9561676,-99999.0,'11111222,11111222,99999999' 
TABS,ioos:station:wmo:42043:1,2002-03-01T07:30:00Z,28.9818,-94.9186,2.0,253.1770622,33.37840769,-99999.0,'11111222,11111222,99999999' 
TABS,ioos:station:wmo:42043:1,2002-03-01T08:00:00Z,28.9818,-94.9186,2.0,252.3321814,40.13290421,-99999.0,'11111222,11111222,99999999' 
TABS,ioos:station:wmo:42043:1,2002-03-01T08:30:00Z,28.9818,-94.9186,2.0,242.2512596,39.41239526,-99999.0,'11111222,11111222,99999999' 
TABS,ioos:station:wmo:42043:1,2002-03-01T09:00:00Z,28.9818,-94.9186,2.0,237.1707298,40.41447389,-99999.0,'11111222,11111222,99999999' 
TABS,ioos:station:wmo:42043:1,2002-03-01T09:30:00Z,28.9818,-94.9186,2.0,234.8970755,41.17958839,-99999.0,'11111222,11111222,99999999' 
TABS,ioos:station:wmo:42043:1,2002-03-01T10:00:00Z,28.9818,-94.9186,2.0,237.4247186,45.74646872,-99999.0,'11111222,11111222,99999999' 
TABS,ioos:station:wmo:42043:1,2002-03-01T10:30:00Z,28.9818,-94.9186,2.0,237.5233621,43.07658877,-99999.0,'11111222,11111222,99999999' 
TABS,ioos:station:wmo:42043:1,2002-03-01T11:00:00Z,28.9818,-94.9186,2.0,231.1623587,37.80828745,-99999.0,'11111222,11111222,99999999' 
TABS,ioos:station:wmo:42043:1,2002-03-01T11:30:00Z,28.9818,-94.9186,2.0,228.8710469,52.67945425,-99999.0,'11111222,11111222,99999999' 
TABS,ioos:station:wmo:42043:1,2002-03-01T12:00:00Z,28.9818,-94.9186,2.0,229.5506024,60.42185366,-99999.0,'11111222,11111222,99999999' 
TABS,ioos:station:wmo:42043:1,2002-03-01T12:30:00Z,28.9818,-94.9186,2.0,238.3795519,59.58594801,-99999.0,'11111222,11111222,99999999' 
TABS,ioos:station:wmo:42043:1,2002-03-01T13:00:00Z,28.9818,-94.9186,2.0,233.2594258,60.09815388,-99999.0,'11111222,11111222,99999999' 
TABS,ioos:station:wmo:42043:1,2002-03-01T13:30:00Z,28.9818,-94.9186,2.0,231.3832768,55.64785081,-99999.0,'11111222,11111222,99999999' 
TABS,ioos:station:wmo:42043:1,2002-03-01T14:00:00Z,28.9818,-94.9186,2.0,230.3116618,62.40146553,-99999.0,'11111222,11111222,99999999' 
TABS,ioos:station:wmo:42043:1,2002-03-01T14:30:00Z,28.9818,-94.9186,2.0,230.176439,58.14923215,-99999.0,'11111222,11111222,99999999' 
TABS,ioos:station:wmo:42043:1,2002-03-01T15:00:00Z,28.9818,-94.9186,2.0,228.8010483,59.40746502,-99999.0,'11111222,11111222,99999999' 
TABS,ioos:station:wmo:42043:1,2002-03-01T15:30:00Z,28.9818,-94.9186,2.0,226.2277267,62.02751164,-99999.0,'11111222,11111222,99999999' 
TABS,ioos:station:wmo:42043:1,2002-03-01T16:00:00Z,28.9818,-94.9186,2.0,221.6712442,67.59322229,-99999.0,'11111222,11111222,99999999' 
TABS,ioos:station:wmo:42043:1,2002-03-01T16:30:00Z,28.9818,-94.9186,2.0,221.148111,61.7922042,-99999.0,'11111222,11111222,99999999' 
TABS,ioos:station:wmo:42043:1,2002-03-01T17:00:00Z,28.9818,-94.9186,2.0,237.7559677,55.04934605,-99999.0,'11111222,11111222,99999999' 
TABS,ioos:station:wmo:42043:1,2002-03-01T17:30:00Z,28.9818,-94.9186,2.0,247.1135098,63.56376326,-99999.0,'11111222,11111222,99999999' 
TABS,ioos:station:wmo:42043:1,2002-03-01T18:00:00Z,28.9818,-94.9186,2.0,243.0008261,67.93369194,-99999.0,'11111222,11111222,99999999' 
TABS,ioos:station:wmo:42043:1,2002-03-01T18:30:00Z,28.9818,-94.9186,2.0,244.7318776,73.67943675,-99999.0,'11111222,11111222,99999999' 
TABS,ioos:station:wmo:42043:1,2002-03-01T19:00:00Z,28.9818,-94.9186,2.0,232.3425002,82.82381843,-99999.0,'11111222,11111222,99999999' 
TABS,ioos:station:wmo:42043:1,2002-03-01T19:30:00Z,28.9818,-94.9186,2.0,232.9489586,81.75640709,-99999.0,'11111222,11111222,99999999' 
TABS,ioos:station:wmo:42043:1,2002-03-01T20:00:00Z,28.9818,-94.9186,2.0,232.6717241,82.30863017,-99999.0,'11111222,11111222,99999999' 
TABS,ioos:station:wmo:42043:1,2002-03-01T20:30:00Z,28.9818,-94.9186,2.0,235.7635393,88.17914776,-99999.0,'11111222,11111222,99999999' 
TABS,ioos:station:wmo:42043:1,2002-03-01T21:00:00Z,28.9818,-94.9186,2.0,231.7280919,101.8744836,-99999.0,'11111222,11111222,99999999' 
TABS,ioos:station:wmo:42043:1,2002-03-01T21:30:00Z,28.9818,-94.9186,2.0,233.0460926,99.97210661,-99999.0,'11111222,11111222,99999999' 
TABS,ioos:station:wmo:42043:1,2002-03-01T22:00:00Z,28.9818,-94.9186,2.0,225.2897977,90.77246113,-99999.0,'11111222,11111222,99999999' 
TABS,ioos:station:wmo:42043:1,2002-03-01T22:30:00Z,28.9818,-94.9186,2.0,221.516088,84.48566506,-99999.0,'11111222,11111222,99999999' 
TABS,ioos:station:wmo:42043:1,2002-03-01T23:00:00Z,28.9818,-94.9186,2.0,236.5890874,92.67486445,-99999.0,'11111222,11111222,99999999' 
TABS,ioos:station:wmo:42043:1,2002-03-01T23:30:00Z,28.9818,-94.9186,2.0,229.6843042,104.3285795,-99999.0,'11111222,11111222,99999999' 
TABS,ioos:station:wmo:42043:1,2002-03-02T00:00:00Z,28.9818,-94.9186,2.0,231.8611537,91.14834173,-99999.0,'11111222,11111222,99999999' 
TABS,ioos:station:wmo:42043:1,2002-03-02T00:30:00Z,28.9818,-94.9186,2.0,232.0992056,112.4221851,-99999.0,'11111222,11111222,99999999' 
TABS,ioos:station:wmo:42043:1,2002-03-02T01:00:00Z,28.9818,-94.9186,2.0,228.6213549,105.3359317,-99999.0,'11111222,11111222,99999999' 
TABS,ioos:station:wmo:42043:1,2002-03-02T01:30:00Z,28.9818,-94.9186,2.0,228.6905409,100.1785376,-99999.0,'11111222,11111222,99999999' 
TABS,ioos:station:wmo:42043:1,2002-03-02T02:00:00Z,28.9818,-94.9186,2.0,234.9956605,109.7041681,-99999.0,'11111222,11111222,99999999' 
TABS,ioos:station:wmo:42043:1,2002-03-02T02:30:00Z,28.9818,-94.9186,2.0,232.7470302,113.7725384,-99999.0,'11111222,11111222,99999999' 
TABS,ioos:station:wmo:42043:1,2002-03-02T03:00:00Z,28.9818,-94.9186,2.0,234.5496594,112.4325229,-99999.0,'11111222,11111222,99999999' 
TABS,ioos:station:wmo:42043:1,2002-03-02T03:30:00Z,28.9818,-94.9186,2.0,233.4502786,107.9736894,-99999.0,'11111222,11111222,99999999' 
TABS,ioos:station:wmo:42043:1,2002-03-02T04:00:00Z,28.9818,-94.9186,2.0,229.6919548,103.72666,-99999.0,'11111222,11111222,99999999' 
TABS,ioos:station:wmo:42043:1,2002-03-02T04:30:00Z,28.9818,-94.9186,2.0,233.6540404,99.67017257,-99999.0,'11111222,11111222,99999999' 
TABS,ioos:station:wmo:42043:1,2002-03-02T05:00:00Z,28.9818,-94.9186,2.0,231.6830943,100.3699925,-99999.0,'11111222,11111222,99999999' 
TABS,ioos:station:wmo:42043:1,2002-03-02T05:30:00Z,28.9818,-94.9186,2.0,231.4472646,97.47602474,-99999.0,'11111222,11111222,99999999' 
TABS,ioos:station:wmo:42043:1,2002-03-02T06:00:00Z,28.9818,-94.9186,2.0,231.7047841,90.23590638,-99999.0,'11111222,11111222,99999999' 
TABS,ioos:station:wmo:42043:1,2002-03-02T06:30:00Z,28.9818,-94.9186,2.0,233.4191872,115.613475,-99999.0,'11111222,11111222,99999999' 
TABS,ioos:station:wmo:42043:1,2002-03-02T07:00:00Z,28.9818,-94.9186,2.0,236.1903197,107.9199305,-99999.0,'11111222,11111222,99999999' 
TABS,ioos:station:wmo:42043:1,2002-03-02T07:30:00Z,28.9818,-94.9186,2.0,235.1619311,100.3931397,-99999.0,'11111222,11111222,99999999' 
TABS,ioos:station:wmo:42043:1,2002-03-02T08:00:00Z,28.9818,-94.9186,2.0,236.3652156,97.13082363,-99999.0,'11111222,11111222,99999999' 
TABS,ioos:station:wmo:42043:1,2002-03-02T08:30:00Z,28.9818,-94.9186,2.0,237.2640672,95.06939045,-99999.0,'11111222,11111222,99999999' 
TABS,ioos:station:wmo:42043:1,2002-03-02T09:00:00Z,28.9818,-94.9186,2.0,239.3916071,93.36905911,-99999.0,'11111222,11111222,99999999' 
TABS,ioos:station:wmo:42043:1,2002-03-02T09:30:00Z,28.9818,-94.9186,2.0,238.393348,94.0505933,-99999.0,'11111222,11111222,99999999' 
TABS,ioos:station:wmo:42043:1,2002-03-02T10:00:00Z,28.9818,-94.9186,2.0,239.3468944,104.8969399,-99999.0,'11111222,11111222,99999999' 
TABS,ioos:station:wmo:42043:1,2002-03-02T10:30:00Z,28.9818,-94.9186,2.0,232.1840669,102.3939476,-99999.0,'11111222,11111222,99999999' 
TABS,ioos:station:wmo:42043:1,2002-03-02T11:00:00Z,28.9818,-94.9186,2.0,233.9024944,103.8094408,-99999.0,'11111222,11111222,99999999' 
TABS,ioos:station:wmo:42043:1,2002-03-02T11:30:00Z,28.9818,-94.9186,2.0,237.5247002,116.7934288,-99999.0,'11111222,11111222,99999999' 
TABS,ioos:station:wmo:42043:1,2002-03-02T12:00:00Z,28.9818,-94.9186,2.0,234.5910039,116.1537726,-99999.0,'11111222,11111222,99999999' 
TABS,ioos:station:wmo:42043:1,2002-03-02T12:30:00Z,28.9818,-94.9186,2.0,233.4474096,109.3096798,-99999.0,'11111222,11111222,99999999' 
TABS,ioos:station:wmo:42043:1,2002-03-02T13:00:00Z,28.9818,-94.9186,2.0,230.672048,107.5969749,-99999.0,'11111222,11111222,99999999' 
TABS,ioos:station:wmo:42043:1,2002-03-02T13:30:00Z,28.9818,-94.9186,2.0,227.7181346,112.8610424,-99999.0,'11111222,11111222,99999999' 
TABS,ioos:station:wmo:42043:1,2002-03-02T14:00:00Z,28.9818,-94.9186,2.0,233.2526429,109.1122509,-99999.0,'11111222,11111222,99999999' 
TABS,ioos:station:wmo:42043:1,2002-03-02T14:30:00Z,28.9818,-94.9186,2.0,232.2115594,96.59840423,-99999.0,'11111222,11111222,99999999' 
TABS,ioos:station:wmo:42043:1,2002-03-02T15:00:00Z,28.9818,-94.9186,2.0,232.1119454,106.5108056,-99999.0,'11111222,11111222,99999999' 
TABS,ioos:station:wmo:42043:1,2002-03-02T15:30:00Z,28.9818,-94.9186,2.0,232.2621311,100.9075696,-99999.0,'11111222,11111222,99999999' 
TABS,ioos:station:wmo:42043:1,2002-03-02T16:00:00Z,28.9818,-94.9186,2.0,231.496982,100.2326973,-99999.0,'11111222,11111222,99999999' 
TABS,ioos:station:wmo:42043:1,2002-03-02T16:30:00Z,28.9818,-94.9186,2.0,227.0861564,109.1506574,-99999.0,'11111222,11111222,99999999' 
TABS,ioos:station:wmo:42043:1,2002-03-02T17:00:00Z,28.9818,-94.9186,2.0,226.5262611,108.5582079,-99999.0,'11111222,11111222,99999999' 
TABS,ioos:station:wmo:42043:1,2002-03-02T17:30:00Z,28.9818,-94.9186,2.0,220.6644735,111.5966886,-99999.0,'11111222,11111222,99999999' 
TABS,ioos:station:wmo:42043:1,2002-03-02T18:00:00Z,28.9818,-94.9186,2.0,218.3037158,107.6417173,-99999.0,'11111222,11111222,99999999' 
TABS,ioos:station:wmo:42043:1,2002-03-02T18:30:00Z,28.9818,-94.9186,2.0,214.7748274,106.0388627,-99999.0,'11111222,11111222,99999999' 
TABS,ioos:station:wmo:42043:1,2002-03-02T19:00:00Z,28.9818,-94.9186,2.0,215.5546317,111.9894928,-99999.0,'11111222,11111222,99999999' 
TABS,ioos:station:wmo:42043:1,2002-03-02T19:30:00Z,28.9818,-94.9186,2.0,217.8944182,112.0459227,-99999.0,'11111222,11111222,99999999' 
TABS,ioos:station:wmo:42043:1,2002-03-02T20:00:00Z,28.9818,-94.9186,2.0,218.161519,112.1245022,-99999.0,'11111222,11111222,99999999' 
TABS,ioos:station:wmo:42043:1,2002-03-02T20:30:00Z,28.9818,-94.9186,2.0,219.3365878,106.1243577,-99999.0,'11111222,11111222,99999999' 
TABS,ioos:station:wmo:42043:1,2002-03-02T21:00:00Z,28.9818,-94.9186,2.0,219.8991465,107.0556201,-99999.0,'11111222,11111222,99999999' 
TABS,ioos:station:wmo:42043:1,2002-03-02T21:30:00Z,28.9818,-94.9186,2.0,222.3877635,104.1165025,-99999.0,'11111222,11111222,99999999' 
TABS,ioos:station:wmo:42043:1,2002-03-02T22:00:00Z,28.9818,-94.9186,2.0,225.9596194,95.38794997,-99999.0,'11111222,11111222,99999999' 
TABS,ioos:station:wmo:42043:1,2002-03-02T22:30:00Z,28.9818,-94.9186,2.0,221.2620635,88.83893572,-99999.0,'11111222,11111222,99999999' 
TABS,ioos:station:wmo:42043:1,2002-03-02T23:00:00Z,28.9818,-94.9186,2.0,221.556272,93.35815176,-99999.0,'11111222,11111222,99999999' 
TABS,ioos:station:wmo:42043:1,2002-03-02T23:30:00Z,28.9818,-94.9186,2.0,218.7508939,94.9771941,-99999.0,'11111222,11111222,99999999' 
TABS,ioos:station:wmo:42043:1,2002-03-03T00:00:00Z,28.9818,-94.9186,2.0,221.7997125,91.45837304,-99999.0,'11111222,11111222,99999999' 
TABS,ioos:station:wmo:42043:1,2002-03-03T00:30:00Z,28.9818,-94.9186,2.0,219.1979345,97.72067591,-99999.0,'11111222,11111222,99999999' 
TABS,ioos:station:wmo:42043:1,2002-03-03T01:00:00Z,28.9818,-94.9186,2.0,217.9149015,97.46221935,-99999.0,'11111222,11111222,99999999' 
TABS,ioos:station:wmo:42043:1,2002-03-03T01:30:00Z,28.9818,-94.9186,2.0,222.8327747,91.63585543,-99999.0,'11111222,11111222,99999999' 
TABS,ioos:station:wmo:42043:1,2002-03-03T02:00:00Z,28.9818,-94.9186,2.0,223.3437437,92.0047314,-99999.0,'11111222,11111222,99999999' 
TABS,ioos:station:wmo:42043:1,2002-03-03T02:30:00Z,28.9818,-94.9186,2.0,223.1520784,93.86772821,-99999.0,'11111222,11111222,99999999' 
TABS,ioos:station:wmo:42043:1,2002-03-03T03:00:00Z,28.9818,-94.9186,2.0,222.1933206,86.65379392,-99999.0,'11111222,11111222,99999999' 
TABS,ioos:station:wmo:42043:1,2002-03-03T03:30:00Z,28.9818,-94.9186,2.0,223.9335452,88.92700152,-99999.0,'11111222,11111222,99999999' 
TABS,ioos:station:wmo:42043:1,2002-03-03T04:00:00Z,28.9818,-94.9186,2.0,229.5912933,82.14660675,-99999.0,'11111222,11111222,99999999' 
TABS,ioos:station:wmo:42043:1,2002-03-03T04:30:00Z,28.9818,-94.9186,2.0,228.809055,80.35637685,-99999.0,'11111222,11111222,99999999' 
TABS,ioos:station:wmo:42043:1,2002-03-03T05:00:00Z,28.9818,-94.9186,2.0,228.9129931,83.09493968,-99999.0,'11111222,11111222,99999999' 
TABS,ioos:station:wmo:42043:1,2002-03-03T05:30:00Z,28.9818,-94.9186,2.0,229.9112939,75.4850621,-99999.0,'11111222,11111222,99999999' 
TABS,ioos:station:wmo:42043:1,2002-03-03T06:00:00Z,28.9818,-94.9186,2.0,231.7211297,75.33676725,-99999.0,'11111222,11111222,99999999' 
TABS,ioos:station:wmo:42043:1,2002-03-03T06:30:00Z,28.9818,-94.9186,2.0,232.0549376,71.32855038,-99999.0,'11111222,11111222,99999999' 
TABS,ioos:station:wmo:42043:1,2002-03-03T07:00:00Z,28.9818,-94.9186,2.0,230.0704885,65.28103553,-99999.0,'11111222,11111222,99999999' 
TABS,ioos:station:wmo:42043:1,2002-03-03T07:30:00Z,28.9818,-94.9186,2.0,227.760832,61.94375836,-99999.0,'11111222,11111222,99999999' 
TABS,ioos:station:wmo:42043:1,2002-03-03T08:00:00Z,28.9818,-94.9186,2.0,229.3723264,59.63418902,-99999.0,'11111222,11111222,99999999' 
TABS,ioos:station:wmo:42043:1,2002-03-03T08:30:00Z,28.9818,-94.9186,2.0,227.8194109,63.5326845,-99999.0,'11111222,11111222,99999999' 
TABS,ioos:station:wmo:42043:1,2002-03-03T09:00:00Z,28.9818,-94.9186,2.0,231.1536918,62.00287251,-99999.0,'11111222,11111222,99999999' 
TABS,ioos:station:wmo:42043:1,2002-03-03T09:30:00Z,28.9818,-94.9186,2.0,236.6602365,48.9448884,-99999.0,'11111222,11111222,99999999' 
TABS,ioos:station:wmo:42043:1,2002-03-03T10:00:00Z,28.9818,-94.9186,2.0,239.3948293,43.80159814,-99999.0,'11111222,11111222,99999999' 
TABS,ioos:station:wmo:42043:1,2002-03-03T10:30:00Z,28.9818,-94.9186,2.0,246.3236362,40.81539538,-99999.0,'11111222,11111222,99999999' 
TABS,ioos:station:wmo:42043:1,2002-03-03T11:00:00Z,28.9818,-94.9186,2.0,246.4670475,35.58990025,-99999.0,'11111222,11111222,99999999' 
TABS,ioos:station:wmo:42043:1,2002-03-03T11:30:00Z,28.9818,-94.9186,2.0,245.3388589,36.7409989,-99999.0,'11111222,11111222,99999999' 
TABS,ioos:station:wmo:42043:1,2002-03-03T12:00:00Z,28.9818,-94.9186,2.0,248.8720602,38.36916731,-99999.0,'11111222,11111222,99999999' 
TABS,ioos:station:wmo:42043:1,2002-03-03T12:30:00Z,28.9818,-94.9186,2.0,234.4216333,46.21774767,-99999.0,'11111222,11111222,99999999' 
TABS,ioos:station:wmo:42043:1,2002-03-03T13:00:00Z,28.9818,-94.9186,2.0,228.8955889,44.12643879,-99999.0,'11111222,11111222,99999999' 
TABS,ioos:station:wmo:42043:1,2002-03-03T13:30:00Z,28.9818,-94.9186,2.0,231.383891,48.77464198,-99999.0,'11111222,11111222,99999999' 
TABS,ioos:station:wmo:42043:1,2002-03-03T14:00:00Z,28.9818,-94.9186,2.0,227.7644871,41.04583048,-99999.0,'11111222,11111222,99999999' 
TABS,ioos:station:wmo:42043:1,2002-03-03T14:30:00Z,28.9818,-94.9186,2.0,228.4541037,47.05860708,-99999.0,'11111222,11111222,99999999' 
TABS,ioos:station:wmo:42043:1,2002-03-03T15:00:00Z,28.9818,-94.9186,2.0,228.9728181,43.37210279,-99999.0,'11111222,11111222,99999999' 
TABS,ioos:station:wmo:42043:1,2002-03-03T15:30:00Z,28.9818,-94.9186,2.0,219.2982989,43.84538516,-99999.0,'11111222,11111222,99999999' 
TABS,ioos:station:wmo:42043:1,2002-03-03T16:00:00Z,28.9818,-94.9186,2.0,215.0145319,39.10849652,-99999.0,'11111222,11111222,99999999' 
TABS,ioos:station:wmo:42043:1,2002-03-03T16:30:00Z,28.9818,-94.9186,2.0,225.9450026,39.00224737,-99999.0,'11111222,11111222,99999999' 
TABS,ioos:station:wmo:42043:1,2002-03-03T17:00:00Z,28.9818,-94.9186,2.0,223.6060831,33.14482765,-99999.0,'11111222,11111222,99999999' 
TABS,ioos:station:wmo:42043:1,2002-03-03T17:30:00Z,28.9818,-94.9186,2.0,217.1577184,34.20443246,-99999.0,'11111222,11111222,99999999' 
TABS,ioos:station:wmo:42043:1,2002-03-03T18:00:00Z,28.9818,-94.9186,2.0,217.2398967,27.23256874,-99999.0,'11111222,11111222,99999999' 
TABS,ioos:station:wmo:42043:1,2002-03-03T18:30:00Z,28.9818,-94.9186,2.0,212.9117686,24.91943017,-99999.0,'11111222,11111222,99999999' 
TABS,ioos:station:wmo:42043:1,2002-03-03T19:00:00Z,28.9818,-94.9186,2.0,210.9672638,25.92544117,-99999.0,'11111222,11111222,99999999' 
TABS,ioos:station:wmo:42043:1,2002-03-03T19:30:00Z,28.9818,-94.9186,2.0,215.9703664,25.99720177,-99999.0,'11111222,11111222,99999999' 
TABS,ioos:station:wmo:42043:1,2002-03-03T20:00:00Z,28.9818,-94.9186,2.0,223.5460423,32.89105045,-99999.0,'11111222,11111222,99999999' 
TABS,ioos:station:wmo:42043:1,2002-03-03T20:30:00Z,28.9818,-94.9186,2.0,222.3331309,26.44614528,-99999.0,'11111222,11111222,99999999' 
TABS,ioos:station:wmo:42043:1,2002-03-03T21:00:00Z,28.9818,-94.9186,2.0,239.0208869,19.64173363,-99999.0,'11111222,11111222,99999999' 
TABS,ioos:station:wmo:42043:1,2002-03-03T21:30:00Z,28.9818,-94.9186,2.0,225.5372207,21.85763253,-99999.0,'11111222,11111222,99999999' 
TABS,ioos:station:wmo:42043:1,2002-03-03T22:00:00Z,28.9818,-94.9186,2.0,227.3306018,23.2972316,-99999.0,'11111222,11111222,99999999' 
TABS,ioos:station:wmo:42043:1,2002-03-03T22:30:00Z,28.9818,-94.9186,2.0,231.4747578,25.20651503,-99999.0,'11111222,11111222,99999999' 
TABS,ioos:station:wmo:42043:1,2002-03-03T23:00:00Z,28.9818,-94.9186,2.0,233.0466703,27.58002901,-99999.0,'11111222,11111222,99999999' 
TABS,ioos:station:wmo:42043:1,2002-03-03T23:30:00Z,28.9818,-94.9186,2.0,236.1136204,30.81377614,-99999.0,'11111222,11111222,99999999' 
TABS,ioos:station:wmo:42043:1,2002-03-04T00:00:00Z,28.9818,-94.9186,2.0,228.9117795,32.43986591,-99999.0,'11111222,11111222,99999999' 
TABS,ioos:station:wmo:42043:1,2002-03-04T00:30:00Z,28.9818,-94.9186,2.0,228.0620637,33.48690042,-99999.0,'11111222,11111222,99999999' 
TABS,ioos:station:wmo:42043:1,2002-03-04T01:00:00Z,28.9818,-94.9186,2.0,225.4036269,31.09225788,-99999.0,'11111222,11111222,99999999' 
TABS,ioos:station:wmo:42043:1,2002-03-04T01:30:00Z,28.9818,-94.9186,2.0,218.0096276,32.77048672,-99999.0,'11111222,11111222,99999999' 
TABS,ioos:station:wmo:42043:1,2002-03-04T02:00:00Z,28.9818,-94.9186,2.0,225.2134311,36.01319897,-99999.0,'11111222,11111222,99999999' 
TABS,ioos:station:wmo:42043:1,2002-03-04T02:30:00Z,28.9818,-94.9186,2.0,226.8508212,36.99391977,-99999.0,'11111222,11111222,99999999' 
TABS,ioos:station:wmo:42043:1,2002-03-04T03:00:00Z,28.9818,-94.9186,2.0,224.5712715,35.93617119,-99999.0,'11111222,11111222,99999999' 
TABS,ioos:station:wmo:42043:1,2002-03-04T03:30:00Z,28.9818,-94.9186,2.0,218.5235749,34.23026147,-99999.0,'11111222,11111222,99999999' 
TABS,ioos:station:wmo:42043:1,2002-03-04T04:00:00Z,28.9818,-94.9186,2.0,214.3351337,33.24251796,-99999.0,'11111222,11111222,99999999' 
TABS,ioos:station:wmo:42043:1,2002-03-04T04:30:00Z,28.9818,-94.9186,2.0,219.4429934,33.00728707,-99999.0,'11111222,11111222,99999999' 
TABS,ioos:station:wmo:42043:1,2002-03-04T05:00:00Z,28.9818,-94.9186,2.0,218.7066279,30.38361565,-99999.0,'11111222,11111222,99999999' 
TABS,ioos:station:wmo:42043:1,2002-03-04T05:30:00Z,28.9818,-94.9186,2.0,219.3488862,27.64788057,-99999.0,'11111222,11111222,99999999' 
TABS,ioos:station:wmo:42043:1,2002-03-04T06:00:00Z,28.9818,-94.9186,2.0,229.6359799,25.89412675,-99999.0,'11111222,11111222,99999999' 
TABS,ioos:station:wmo:42043:1,2002-03-04T06:30:00Z,28.9818,-94.9186,2.0,231.0924417,25.31600284,-99999.0,'11111222,11111222,99999999' 
TABS,ioos:station:wmo:42043:1,2002-03-04T07:00:00Z,28.9818,-94.9186,2.0,228.4041947,25.0049995,-99999.0,'11111222,11111222,99999999' 
TABS,ioos:station:wmo:42043:1,2002-03-04T07:30:00Z,28.9818,-94.9186,2.0,235.1663089,23.07457475,-99999.0,'11111222,11111222,99999999' 
TABS,ioos:station:wmo:42043:1,2002-03-04T08:00:00Z,28.9818,-94.9186,2.0,238.6897019,23.84216853,-99999.0,'11111222,11111222,99999999' 
TABS,ioos:station:wmo:42043:1,2002-03-04T08:30:00Z,28.9818,-94.9186,2.0,242.349733,24.565374,-99999.0,'11111222,11111222,99999999' 
TABS,ioos:station:wmo:42043:1,2002-03-04T09:00:00Z,28.9818,-94.9186,2.0,251.3744284,22.85706893,-99999.0,'11111222,11111222,99999999' 
TABS,ioos:station:wmo:42043:1,2002-03-04T09:30:00Z,28.9818,-94.9186,2.0,256.4818939,23.31590444,-99999.0,'11111222,11111222,99999999' 
TABS,ioos:station:wmo:42043:1,2002-03-04T10:00:00Z,28.9818,-94.9186,2.0,260.9824154,29.4135105,-99999.0,'11111222,11111222,99999999' 
TABS,ioos:station:wmo:42043:1,2002-03-04T10:30:00Z,28.9818,-94.9186,2.0,260.918298,25.21607424,-99999.0,'11111222,11111222,99999999' 
TABS,ioos:station:wmo:42043:1,2002-03-04T11:00:00Z,28.9818,-94.9186,2.0,258.4005263,22.92822933,-99999.0,'11111222,11111222,99999999' 
TABS,ioos:station:wmo:42043:1,2002-03-04T11:30:00Z,28.9818,-94.9186,2.0,260.5690121,32.65128788,-99999.0,'11111222,11111222,99999999' 
TABS,ioos:station:wmo:42043:1,2002-03-04T12:00:00Z,28.9818,-94.9186,2.0,260.2517107,38.92194368,-99999.0,'11111222,11111222,99999999' 
TABS,ioos:station:wmo:42043:1,2002-03-04T12:30:00Z,28.9818,-94.9186,2.0,271.8707046,33.39779184,-99999.0,'11111222,11111222,99999999' 
TABS,ioos:station:wmo:42043:1,2002-03-04T13:00:00Z,28.9818,-94.9186,2.0,261.3891041,26.65037711,-99999.0,'11111222,11111222,99999999' 
TABS,ioos:station:wmo:42043:1,2002-03-04T13:30:00Z,28.9818,-94.9186,2.0,263.5273239,23.95266165,-99999.0,'11111222,11111222,99999999' 
TABS,ioos:station:wmo:42043:1,2002-03-04T14:00:00Z,28.9818,-94.9186,2.0,261.4914295,25.07596658,-99999.0,'11111222,11111222,99999999' 
TABS,ioos:station:wmo:42043:1,2002-03-04T14:30:00Z,28.9818,-94.9186,2.0,255.7396459,24.84553883,-99999.0,'11111222,11111222,99999999' 
TABS,ioos:station:wmo:42043:1,2002-03-04T15:00:00Z,28.9818,-94.9186,2.0,256.0767128,26.97243964,-99999.0,'11111222,11111222,99999999' 
TABS,ioos:station:wmo:42043:1,2002-03-04T15:30:00Z,28.9818,-94.9186,2.0,260.0551731,27.15803012,-99999.0,'11111222,11111222,99999999' 
TABS,ioos:station:wmo:42043:1,2002-03-04T16:00:00Z,28.9818,-94.9186,2.0,262.5296517,28.84480022,-99999.0,'11111222,11111222,99999999' 